Regional Weather Roundup
Issued by NWS

Home | Current Version | Previous Version | Text Only | Print | Product List | Glossary On
Versions: 1 2 3 4 5 6 7 8 9 10 11 12 13 14 15 16 17 18 19 20 21 22 23 24 25 26 27 28 29 30 31 32 33 34 35 36 37 38 39 40 41 42 43 44 45 46 47 48 49 50
000
ASUS46 KLOX 271312
RWRCA

SOUTHERN CALIFORNIA WEATHER ROUNDUP
NATIONAL WEATHER SERVICE OXNARD CALIFORNIA
500 AM PST THU NOV 27 2014

NOTE: "FAIR" INDICATES FEW OR NO CLOUDS BELOW 12,000 FEET WITH NO
SIGNIFICANT WEATHER AND/OR OBSTRUCTIONS TO VISIBILITY.

  -  STATIONS PRECEEDED BY AN ASTERISK (*) ARE NOT NWS OR FAA
     STATIONS AND ARE NOT SUBJECT TO NWS AND FAA QUALITY CONTROL.

CAZ041-042-087-271400-
LA AND ORANGE COUNTY COASTAL AREAS


CITY           SKY/WX    TMP DP  RH WIND       PRES   REMARKS
L.A. DOWNTOWN  CLEAR     63  21  20 NE3       30.08S
L.A. AIRPORT   CLEAR     63  21  20 E5        30.08F
LONG BEACH     CLEAR     55  32  41 CALM      30.08S

CITY           SKY/WX    TMP DP  RH WIND       PRES   REMARKS
AVALON           N/A     57 N/A N/A MISG        N/A
FULLERTON      CLEAR     52  35  52 CALM      30.07S
*GETTY CENTER    N/A    N/A N/A N/A VRB12       N/A
HAWTHORNE      CLEAR     59  30  33 CALM      30.08S
*LOS ALAMITOS  FAIR      48  39  72 CALM      30.07F
*REDONDO BEACH   N/A     58  27  31 CALM      30.07S
SANTA ANA      CLEAR     54  41  61 CALM      30.07S
STA MONICA APT CLEAR     61  25  25 NE7       30.08S
*STA MON PIER    N/A     62  32  32 CALM      30.06F

$$

CAZ547-548-048-271400-
LA COUNTY VALLEYS AND INLAND EMPIRE


CITY           SKY/WX    TMP DP  RH WIND       PRES   REMARKS
BURBANK        CLEAR     55  17  22 N8        30.10S
VAN NUYS       CLEAR     51  30  44 CALM      30.11S

CITY           SKY/WX    TMP DP  RH WIND       PRES   REMARKS
CORONA AIRPORT SUNNY     36  28  73 CALM      30.13S
*CHATSWORTH      N/A     54  30  40 CALM      30.09S
CHINO          CLEAR     42  34  73 CALM      30.13S
MARCH AFB      CLEAR     41  19  42 NW2       30.15S
*NORTHRIDGE      N/A     54  23  30 CALM        N/A
ONTARIO        CLEAR     53  29  39 N5        30.12S
*PASADENA        N/A     59  27  29 E3          N/A
RIVERSIDE      CLEAR     56  25  30 NE6       30.12S
SAN BERNARDINO NOT AVBL
*WHITEMAN AP   NOT AVBL
*WOODLAND HILL   N/A     46  27  46 N1          N/A

$$

CAZ054-055-271400-
LA AND SAN BERNARDINO COUNTY MOUNTAINS


CITY           SKY/WX    TMP DP  RH WIND       PRES   REMARKS
*BIG BEAR AIRP SUNNY     27  10  50 CALM      30.43F
MT WILSON NWS    N/A     63  -9   5 MISG        N/A
SANDBERG       CLEAR     59  14  17 E12       30.31S

$$

CAZ028-029-059-060-099-271400-
ANTELOPE VALLEY AND SURROUNDING AREAS


CITY           SKY/WX    TMP DP  RH WIND       PRES   REMARKS
LANCASTER      PTCLDY    32  13  45 W3        30.28S
PALMDALE       PTCLDY    37  14  38 CALM      30.28R

CITY           SKY/WX    TMP DP  RH WIND       PRES   REMARKS
29 PALMS       CLEAR     43  14  31 CALM      30.31S
BARSTOW/DAGGET CLEAR     44  11  26 W9        30.26S
BISHOP         CLOUDY    37  17  44 N7        30.32F WCI  32
CHINA LAKE     CLEAR     35  12  38 SW6       30.27S WCI  30
EDWARDS AFB    CLEAR     33   1  25 CALM      30.26S
MOJAVE         FAIR      39  14  35 CALM      30.28S
NEEDLES        CLEAR     52  18  26 NW8       30.22R
VICTORVILLE    CLEAR     37  10  32 SW5       30.27S WCI  34

$$

CAZ039-040-271400-
VENTURA AND SANTA BARBARA COUNTY COAST


CITY           SKY/WX    TMP DP  RH WIND       PRES   REMARKS
CAMARILLO      CLEAR     53  31  42 NW3       30.08R
NWS OXNARD       N/A     60  26  27 CALM      30.07S
OXNARD AIRPORT CLEAR     66  24  20 NE12      30.08R
*POINT MUGU    CLEAR     59  32  36 N8        30.08S
SBA APT/GOLETA CLEAR     46  36  68 CALM      30.08S
*SANTA BARBARA   N/A     52  35  53 CALM      30.16R
*VENTURA         N/A     69  30  23 N7        30.14S

$$

CAZ044-045-271400-
VENTURA COUNTY VALLEYS


CITY           SKY/WX    TMP DP  RH WIND       PRES   REMARKS
*SIMI VALLEY     N/A     73  23  15 NE12      30.04S
*OJAI            N/A     41  34  75 CALM      30.09R
*FILLMORE        N/A     48  33  56 CALM      30.01S

$$

CAZ053-271400-
VENTURA COUNTY MOUNTAINS


CITY           SKY/WX    TMP DP  RH WIND       PRES   REMARKS
*LOCKWOOD VLY    N/A     28  10  47 MISG        N/A
*ROSE VALLEY     N/A     27  19  74 MISG        N/A

$$

CAZ034-035-036-271400-
CENTRAL COAST AND SANTA YNEZ VALLEY


CITY           SKY/WX    TMP DP  RH WIND       PRES   REMARKS
SAN LUIS OBISP CLEAR     45  37  73 CALM      30.11F
SANTA MARIA    CLEAR     50  35  56 CALM      30.11F

CITY           SKY/WX    TMP DP  RH WIND       PRES   REMARKS
*CAL POLY SLO    N/A     46  39  76 CALM        N/A
*LOMPOC        CLEAR     43  30  61 E8        30.11F
*SANTA YNEZ    FAIR      45  28  53 CALM      30.13S

$$

CAZ037-038-051-271400-
SAN LUIS OBISPO COUNTY INTERIOR AND CUYAMA VALLEY


CITY           SKY/WX    TMP DP  RH WIND       PRES   REMARKS
*CUYAMA          N/A     46  24  43 E3        30.16S
PASO ROBLES    CLEAR     40  34  79 CALM      30.18S

$$

CAZ032-033-061-271400-
SOUTHERN DESERTS


CITY           SKY/WX    TMP DP  RH WIND       PRES   REMARKS
BLYTHE         CLEAR     48  13  24 N6        30.18R
IMPERIAL       CLEAR     46  28  49 SW3       30.14R
PALM SPRINGS   CLEAR     48  32  53 W3        30.17S
THERMAL        CLEAR     45  30  55 N7        30.13F

$$

ELSEWHERE ACROSS THE WESTERN UNITED STATES AND MEXICO


CITY           SKY/WX    TMP DP  RH WIND       PRES   REMARKS
DENVER, CO     MOCLDY    44  21  40 S14       30.21S
GRAND CANYON,  PTCLDY    16   7  67 CALM      30.46S
HONOLULU, HI   MOCLDY    75  61  60 NE10G20   30.04F
KAHULUI, MAUI  LGT RAIN  70  64  83 NE6       30.06F
LAKE TAHOE, CA MOCLDY    40  25  55 VRB5      30.33F
LAS VEGAS, NV  CLEAR     46  18  32 SW6       30.26S
MAMMOTH LAKES, FAIR      30  12  47 CALM      30.43F
MEXICO CITY, M PTCLDY    37  14  38 NE5       30.47R WCI  34
PHOENIX, AZ    PTCLDY    48  30  49 E8        30.18R
PORTLAND, OR   CLOUDY    56  49  77 E12       29.97S
RENO, NV       MOCLDY    45  25  45 E6        30.25F
SALT LAKE CITY MOCLDY    46  26  45 SE16      30.28F
SAN DIEGO, CA  CLEAR     56  31  38 CALM      30.08F
SAN FRANCISCO, MOCLDY    52  50  93 S5        30.16F FOG
SAN JOSE, CA   MOCLDY    46  42  86 CALM      30.17S
SEATTLE, WA    CLOUDY    53  47  79 S9        29.86S
TIJUANA, MEX   CLEAR     59  19  21 CALM      30.11S

$$

STATION/POSITION TIME  TEMP    WIND        PRES    VSBY  WAVE
                       AIR SEA DIR/SP/G                  HT/PER
                 (UTC) (F)     (DEG/KT/KT) (MB)    (MI)  (FT/S)
POINT ARGUELLO B NOT AVBL
WEST SANTA BARBA 1300   64 63  310/  8/  8 1017.8F         3/12
POINT CONCEPTION NOT AVBL
EAST SANTA BARBA 1300   64 65   80/  2/  4 1018.7F
SANTA MONICA BAY 1300   65 66   40/  2/  4 1018.7R         2/14



USA.gov is the U.S. government's official web portal to all federal, state and local government web resources and services.